KW1M Weather Reports


Display with metric or nautical units.
time (UTC)temp
F
wind
direction
speed
MPH
gust
MPH
rain 1hr
in
rain 24hr
in
rain mn
in
humidity
%
barometer
mb
20260507023016 51 187 0.0 4.0 0.07 0.22 0.22 96 1006.5
20260507021513 53 186 0.0 4.0 0.09 0.22 0.22 97 1006.2
20260507020010 53 188 0.0 3.0 0.09 0.22 0.22 97 1005.8
20260507014509 55 188 0.0 1.0 0.07 0.20 0.20 97 1005.8
20260507013003 57 188 1.0 8.0 0.02 0.15 0.15 97 1005.5
20260507011504 57 132 1.0 8.0 0.00 0.13 0.13 97 1005.2
20260507010003 57 158 2.0 9.0 0.00 0.13 0.13 97 1005.2
20260507004500 57 188 1.0 8.0 0.00 0.13 0.13 97 1005.2
20260507003113 57 186 0.0 9.0 0.00 0.13 0.13 97 1005.1
20260507001605 57 142 1.0 6.0 0.00 0.13 0.13 97 1005.1
20260507000059 57 187 2.0 12.0 0.00 0.13 0.13 97 1004.8
20260506234606 57 156 2.0 9.0 0.00 0.13 0.13 97 1004.8
20260506233059 57 120 0.0 7.0 0.00 0.13 0.13 97 1004.8
20260506231556 57 150 3.0 14.0 0.00 0.13 0.13 97 1004.8
20260506224559 58 139 3.0 13.0 0.00 0.13 0.13 96 1004.7
20260506223053 58 184 3.0 13.0 0.00 0.13 0.13 96 1004.8
20260506221551 58 150 4.0 16.0 0.00 0.13 0.13 96 1004.8
20260506220053 58 113 5.0 19.0 0.00 0.13 0.13 96 1005.0
20260506214549 58 127 4.0 16.0 0.00 0.13 0.13 96 1004.9
20260506213047 58 117 3.0 17.0 0.00 0.13 0.13 96 1005.0
20260506211547 59 143 3.0 11.0 0.01 0.13 0.13 96 1005.1
20260506210045 59 117 2.0 16.0 0.03 0.13 0.13 96 1005.1
20260506204544 59 146 3.0 11.0 0.04 0.13 0.13 96 1005.2
20260506203043 59 173 3.0 14.0 0.05 0.13 0.13 96 1005.2
20260506201541 59 165 5.0 14.0 0.05 0.12 0.12 95 1005.5
20260506200041 59 120 4.0 14.0 0.03 0.10 0.10 95 1005.5
20260506194538 59 148 1.0 11.0 0.02 0.09 0.09 94 1005.8
20260506193042 59 111 3.0 6.0 0.02 0.08 0.08 94 1005.8
20260506191537 59 115 0.0 8.0 0.01 0.07 0.07 94 1005.6
20260506190039 59 127 0.0 7.0 0.03 0.07 0.07 94 1005.9
20260506184538 59 129 0.0 5.0 0.04 0.07 0.07 93 1006.2
20260506183029 59 128 2.0 9.0 0.05 0.06 0.06 92 1006.7
20260506181528 60 170 2.0 8.0 0.06 0.06 0.06 91 1006.7
20260506180030 60 159 4.0 12.0 0.04 0.04 0.04 89 1007.0
20260506174526 61 187 4.0 17.0 0.03 0.03 0.03 84 1007.0
20260506173031 64 138 7.0 14.0 0.00 0.00 0.00 79 1007.0
20260506171527 65 187 2.0 10.0 0.00 0.00 0.00 74 1006.7
20260506170022 66 122 3.0 9.0 0.00 0.00 0.00 72 1006.6
20260506164523 66 162 5.0 16.0 0.00 0.00 0.00 72 1006.7
20260506163028 66 127 6.0 13.0 0.00 0.00 0.00 72 1007.0
20260506161520 66 99 4.0 12.0 0.00 0.00 0.00 72 1007.1
20260506160017 66 157 0.0 8.0 0.00 0.00 0.00 74 1007.4
20260506154514 65 187 1.0 12.0 0.00 0.00 0.00 74 1007.9
20260506153012 65 158 3.0 13.0 0.00 0.00 0.00 75 1008.0
20260506151510 65 167 3.0 13.0 0.00 0.00 0.00 76 1008.3
20260506150009 64 173 0.0 9.0 0.00 0.00 0.00 77 1008.2
20260506144509 64 140 2.0 14.0 0.00 0.00 0.00 77 1008.4
20260506143008 64 169 1.0 11.0 0.00 0.00 0.00 78 1008.0
20260506141504 63 152 1.0 9.0 0.00 0.00 0.00 79 1008.1
20260506140002 62 113 1.0 7.0 0.00 0.00 0.00 82 1008.0
20260506134600 61 120 5.0 11.0 0.00 0.00 0.00 82 1008.3
20260506133100 61 156 1.0 8.0 0.00 0.00 0.00 83 1008.3
20260506131602 60 138 2.0 8.0 0.00 0.00 0.00 83 1008.5
20260506130131 60 176 4.0 11.0 0.00 0.00 0.00 83 1008.5
20260506124601 60 141 5.0 11.0 0.00 0.00 0.00 83 1008.6
20260506123056 59 167 3.0 7.0 0.00 0.00 0.00 83 1008.4
20260506121553 59 131 2.0 11.0 0.00 0.00 0.00 84 1008.4
20260506120052 59 155 2.0 10.0 0.00 0.00 0.00 84 1008.7
20260506114551 58 152 2.0 13.0 0.00 0.00 0.00 84 1008.6
20260506113056 58 148 2.0 10.0 0.00 0.00 0.00 85 1008.9
20260506111549 58 100 0.0 11.0 0.00 0.00 0.00 85 1008.9
20260506110055 57 114 1.0 8.0 0.00 0.00 0.00 85 1009.0
20260506104553 57 137 1.0 9.0 0.00 0.00 0.00 85 1009.3
20260506103055 57 129 0.0 8.0 0.00 0.00 0.00 85 1009.1
20260506101555 57 129 1.0 8.0 0.00 0.00 0.00 85 1008.9
20260506100101 57 136 2.0 11.0 0.00 0.00 0.00 84 1008.8
20260506094542 57 169 0.0 8.0 0.00 0.00 0.00 83 1008.9
20260506093045 57 127 2.0 10.0 0.00 0.00 0.00 82 1008.9
20260506091540 57 129 1.0 8.0 0.00 0.00 0.00 81 1008.8
20260506090037 57 115 0.0 6.0 0.00 0.00 0.00 80 1008.9
20260506084554 57 132 0.0 5.0 0.00 0.00 0.00 79 1009.0
20260506083035 57 107 0.0 2.0 0.00 0.00 0.00 79 1009.0
20260506081540 58 184 0.0 5.0 0.00 0.00 0.00 78 1009.0
20260506073038 59 117 0.0 3.0 0.00 0.00 0.00 75 1009.0
20260506071525 59 148 1.0 6.0 0.00 0.00 0.00 74 1008.9
20260506061519 60 162 2.0 7.0 0.00 0.00 0.00 72 1008.6
20260506044528 61 117 0.0 7.0 0.00 0.00 0.00 71 1008.8
20260506043009 61 87 0.0 9.0 0.00 0.00 0.00 70 1008.9
20260506041505 62 132 1.0 8.0 0.00 0.00 0.00 70 1008.8
20260506040005 63 133 4.0 7.0 0.00 0.00 0.00 68 1008.7
20260506034503 63 138 2.0 11.0 0.00 0.00 0.00 68 1008.7
20260506033002 64 154 1.0 8.0 0.00 0.00 0.00 68 1008.7
20260506031502 64 169 3.0 10.0 0.00 0.00 0.00 66 1008.7
20260506030000 64 162 2.0 12.0 0.00 0.00 0.00 68 1008.7
20260506024600 64 144 1.0 10.0 0.00 0.00 0.00 70 1008.6